Change the Weather History Date:

Sunday, March 2, 2014

  Actual Average Record
Temperature  
Mean Temperature 24 °F 29 °F  
Max Temperature 31 °F 38 °F 59 °F (1972)
Min Temperature 17 °F 21 °F -2 °F (1980)
Degree Days  
Heating Degree Days 41 36  
Month to date heating degree days 92 72  
Since 1 July heating degree days 5519 5195  
Cooling Degree Days 0 0  
Month to date cooling degree days 0 0  
Year to date cooling degree days 0 0  
Moisture  
Dew Point 16 °F    
Average Humidity 64    
Maximum Humidity 75    
Minimum Humidity 53    
Precipitation  
Precipitation T in 0.07 in 1.60 in (1947)
Month to date precipitation T 0.14  
Year to date precipitation 6.39 5.40  
Sea Level Pressure  
Sea Level Pressure 30.03 in    
Wind  
Wind Speed 9 mph (NW)    
Max Wind Speed 20 mph    
Max Gust Speed 26 mph    
Visibility 9 miles    
Events Snow    
T = Trace of Precipitation, MM = Missing Value Source: NWS Daily Summary

Daily Weather History Graph

Daily Weather History Graph

Search for Another Location

Airport or City:

Trip Planner

Search our weather history database for the weather conditions in past years. The results will help you decide how hot, cold, wet, or windy it might be!

Date:

Astronomy

Mar. 02, 2014 Rise Set
Actual Time 6:34 AM EST 5:53 PM EST
Civil Twilight 6:06 AM EST 6:21 PM EST
Nautical Twilight 5:34 AM EST 6:53 PM EST
Astronomical Twilight 5:02 AM EST 7:25 PM EST
Moon 7:02 AM EST (3/2) 7:48 PM EST (3/2)
Length of Visible Light 12h 14m
Length of Day
11h 19m
Waxing Crescent, 3% of the Moon is Illuminated
Mar 2
Waxing Crescent
Mar 8
First Quarter
Mar 16
Full
Mar 23
Last Quarter
Mar 30
New

Hourly Weather History & Observations

Time (EST) Temp. Windchill Dew Point Humidity Pressure Visibility Wind Dir Wind Speed Gust Speed Precip Events Conditions
12:53 AM 27.0 °F 18.7 °F 12.9 °F 56% 30.11 in 10.0 mi West 8.1 mph - N/A   Partly Cloudy
1:53 AM 28.0 °F 20.0 °F 14.0 °F 56% 30.09 in 10.0 mi West 8.1 mph - N/A   Overcast
2:53 AM 30.0 °F 21.7 °F 17.1 °F 59% 30.06 in 10.0 mi West 9.2 mph - N/A   Overcast
3:53 AM 30.9 °F 22.8 °F 18.0 °F 59% 30.04 in 10.0 mi WNW 9.2 mph - N/A   Overcast
4:53 AM 30.0 °F 24.1 °F 18.0 °F 61% 30.04 in 10.0 mi WNW 5.8 mph - N/A   Overcast
5:53 AM 30.0 °F 21.1 °F 17.1 °F 59% 30.05 in 10.0 mi WNW 10.4 mph - N/A   Overcast
6:13 AM 30.0 °F 21.7 °F 17.1 °F 59% 29.99 in 10.0 mi NW 9.2 mph - N/A   Overcast
6:53 AM 28.0 °F 19.3 °F 18.0 °F 66% 30.06 in 9.0 mi NW 9.2 mph - N/A   Overcast
7:45 AM 27.0 °F 18.0 °F 19.9 °F 75% 29.99 in 1.8 mi NW 9.2 mph - 0.00 in Snow Light Snow
7:53 AM 27.0 °F 18.7 °F 21.0 °F 78% 30.08 in 2.0 mi NW 8.1 mph - 0.00 in Snow Light Snow
8:09 AM 27.0 °F 18.7 °F 21.0 °F 78% 30.00 in 3.0 mi NW 8.1 mph - 0.00 in   Haze
8:53 AM 27.0 °F 17.3 °F 19.9 °F 75% 30.09 in 6.0 mi NW 10.4 mph - 0.00 in   Haze
9:53 AM 28.0 °F 19.3 °F 21.0 °F 75% 30.08 in 6.0 mi NW 9.2 mph - 0.00 in   Haze
10:32 AM 27.0 °F 16.7 °F 21.9 °F 81% 29.99 in 5.0 mi NW 11.5 mph - N/A   Haze
10:53 AM 27.0 °F 17.3 °F 19.9 °F 75% 30.06 in 8.0 mi NW 10.4 mph - N/A   Overcast
11:53 AM 28.9 °F 19.8 °F 19.0 °F 67% 30.04 in 10.0 mi NNW 10.4 mph - N/A   Partly Cloudy
12:53 PM 28.0 °F 18.6 °F 17.1 °F 63% 30.01 in 10.0 mi NW 10.4 mph - N/A   Overcast
1:53 PM 28.0 °F 19.3 °F 16.0 °F 61% 30.01 in 10.0 mi NNW 9.2 mph - N/A   Overcast
2:53 PM 28.0 °F 20.0 °F 16.0 °F 61% 30.00 in 10.0 mi NNW 8.1 mph - N/A   Mostly Cloudy
3:53 PM 27.0 °F 18.0 °F 15.1 °F 61% 30.01 in 10.0 mi WNW 9.2 mph - N/A   Overcast
4:53 PM 26.1 °F 16.8 °F 14.0 °F 60% 30.02 in 10.0 mi NNW 9.2 mph - N/A   Overcast
5:53 PM 25.0 °F 16.3 °F 12.9 °F 60% 30.01 in 10.0 mi NNW 8.1 mph - N/A   Overcast
6:53 PM 21.9 °F 11.0 °F 12.0 °F 66% 30.02 in 10.0 mi NNW 10.4 mph - N/A   Overcast
7:53 PM 21.0 °F 10.6 °F 10.9 °F 65% 30.01 in 10.0 mi NNW 9.2 mph - N/A   Overcast
8:53 PM 19.9 °F 9.3 °F 9.0 °F 62% 30.01 in 10.0 mi NW 9.2 mph - N/A   Overcast
9:53 PM 19.0 °F 6.8 °F 9.0 °F 65% 30.02 in 10.0 mi NW 11.5 mph 17.3 mph N/A   Overcast
10:53 PM 18.0 °F 5.4 °F 8.1 °F 65% 30.02 in 10.0 mi NNW 11.5 mph - N/A   Overcast
11:53 PM 17.1 °F 4.3 °F 8.1 °F 68% 30.02 in 10.0 mi NNW 11.5 mph 20.7 mph N/A   Overcast